Tracking 31027 objects as of 19-Jul-2025
HD Live streaming from Space Station
objects crossing your sky now

STARLINK-32425

Track STARLINK-32425 now!
10-day predictions


NORAD ID: 61216
Int'l Code: 2024-171S
Perigee: 481.7 km
Apogee: 483.1 km
Inclination: 53.2 °
Period: 94.1 minutes
Semi major axis: 6853 km
RCS: Unknown
Launch date: September 20, 2024
Source: United States (US)
Launch site: AIR FORCE WESTERN TEST RANGE (AFWTR)
Your satellite tracking list
STARLINK-31611
Track 1 satellite(s)




NASA's NSSDC Master Catalog

Two Line Element Set (TLE):
1 61216U 24171S   25199.64444542 -.00000986  00000-0 -21176-4 0  9996
2 61216  53.1613 329.6664 0001018 105.1573 254.9540 15.30188193 46531
Source of the keplerian elements: AFSPC